CZ-4C DEB, 42671

Orbit data source: Space-Track

CZ-4C DEB, 42671 is space debris in SSO originally from a launch on Thu, 26 Nov 2015 UTC launched from the Taiyaun Space Center, China (TSC). Debris objects in space refer to the collection of defunct objects orbiting the Earth. Examples of debris include non-operational satellites, rocket bodies, and fragments generated from explosions, collisions, or faulty payload assembly.

Loading next visibility...
Identifier
42671, 2015-069D
Orbit
SSO
Country
Flag of CNCN / PRC
Related business
Manufacturer
Unknown
Mission
Spacecraft
Bus & Motor
Unknown
Mass
Unknown
Launch date (UTC)
2015-11-26 (10 years ago)
Launch vehicle
Unknown
Launch site
Taiyaun Space Center, China (TSC)
Object type
Payload
Rocket body
Debris
Shape & HBR
Unknown shape, 0.1 m
Radar Cross Section
Small (<0.1 m²)

Expand to show TLE details & history
Last TLE update: 13 hours ago

TLE from 13 hours ago
0 CZ-4C DEB
1 42671U 15069D   25293.88996609  .00008842  00000-0  11953-2 0  9990
2 42671  97.8119 158.2487 0119894  65.8869 295.4826 14.74324015521191
Epoch: 2025-10-20T21:21Z
TLE epoch observation values (Epoch: 2025-10-20T21:21:33.070Z)
Latitude
0.00003°
Longitude
168.27511°
Altitude
614.897 km
Speed
7.571 km/s
True Right ascension
10h 32m 59s
True Declination
0° 00' 00"
Sunlit
Object was in daylight at epoch
Visualization orbit readout
Latitude
Unknown
Longitude
Unknown
Altitude
Unknown
Speed
Unknown
Apparent Right ascension
Unknown
Apparent Declination
Unknown
Sunlit
N/A
Visualization observer readout
Local Sidereal Time
05:20:12
Azimuth
Unknown
Elevation
Unknown
Doppler factor
Unknown
Orbital elements
Apogee altitude
728.537 km
Perigee altitude
560.147 km
Semi-major axis
7,022.479 km
Eccentricity
0.01199
Inclination
97.8119°
RAAN
158.2487°
Arg. of periapsis
65.8869°
True anomaly
294.23443°
Mean anomaly
295.4826°
Eccentric anomaly
294.85931°
Mean motion
3.68814 °/min
Orbital period
97.61 mins
BSTAR
0.0011953
Loading maneuver chart data...
Computing Atmospheric mass density...
Loading historical data...
Loading historical data...
Loading historical data...
Loading historical data...
Loading historical data...
Loading historical data...
Loading historical data...
Other satellites on launch #69 in the year 2015 (2015-11-26 UTC)

Documentation

Showing up to 5 results
|